Lid_Strength_Index
5 10 12 9 9 9 7 9 10 8 6 9 10 9 7 5 5 5 5 5 4 4 2 2 1 1 1 1 1 1 0 -2 -0 0 1 1 1 0 -0 -1 -1 -2 -2 -2
6 12 9 7 7 8 6 8 9 7 6 8 8 9 7 6 5 5 5 5 4 4 3 2 2 1 1 1 1 1 1 0 0 0 0 0 1 0 -0 -0 0 -2 -1 -1
8 9 7 7 7 7 7 8 8 9 7 7 8 10 9 6 5 4 4 4 4 4 4 3 2 2 2 2 1 1 1 0 0 -0 0 -0 -1 -0 0 0 0 -1 -2 -2
8 6 6 7 8 6 9 6 6 7 11 15 8 16 11 8 7 6 5 4 4 4 3 3 3 2 2 2 1 1 1 0 0 -0 0 -0 1 2 1 1 0 0 -1 -1
7 8 7 7 7 6 8 6 7 9 12 14 13 15 13 10 10 7 6 5 4 3 3 3 3 2 1 1 1 1 1 1 0 0 -0 0 1 1 1 0 0 0 -0 -1
6 6 6 5 5 5 5 6 9 11 13 17 13 14 15 12 10 7 6 5 4 3 3 3 2 2 2 1 1 1 1 1 0 0 1 1 1 1 1 1 1 1 1 0
6 6 5 4 6 5 7 9 17 18 16 16 10 13 11 9 7 6 6 5 4 3 3 3 3 3 2 2 2 1 1 1 1 1 1 1 1 1 0 0 1 1 1 1
9 10 6 5 6 7 9 10 17 20 18 14 13 13 10 6 5 5 5 5 4 4 3 3 2 2 2 2 1 1 2 2 1 1 1 0 0 1 1 0 0 0 1 0
9 9 5 5 5 5 10 11 8 11 10 12 13 12 7 6 6 5 6 6 6 6 5 4 3 2 2 1 1 1 1 1 1 1 1 1 1 0 1 0 0 0 -0 0
7 10 7 6 5 5 6 6 9 9 13 16 16 16 14 9 8 6 6 6 6 6 5 4 4 2 2 2 1 1 1 1 1 1 1 1 1 0 0 0 0 -0 -0 -0
6 8 9 7 7 7 7 7 7 7 8 13 15 13 8 8 7 7 6 5 5 4 4 4 3 2 2 1 1 1 1 1 1 1 1 1 1 1 0 1 0 0 -0 -0
5 8 11 9 6 5 6 7 7 9 10 10 12 13 6 6 6 6 5 5 4 4 3 3 2 2 1 1 1 1 2 1 1 1 1 1 1 1 1 1 1 0 0 -0
5 7 12 9 7 6 7 6 6 7 7 11 13 13 6 6 6 5 6 5 4 4 3 3 3 3 2 2 2 2 0 0 0 1 1 1 1 1 1 1 0 0 0 0
3 7 10 12 11 8 8 7 6 7 9 11 12 11 8 7 7 6 5 5 5 4 4 3 3 3 3 2 2 1 1 -1 -1 0 1 1 1 1 1 0 0 0 0 1
5 9 8 8 7 7 7 7 7 7 8 10 10 11 9 7 6 6 5 4 4 4 4 4 4 3 3 2 2 1 1 0 -0 -0 1 0 0 -1 0 0 -0 0 0 0
5 9 8 9 7 7 8 7 7 7 7 9 9 10 8 8 5 5 5 4 5 4 4 3 3 3 3 3 2 2 1 1 1 1 1 -0 -1 -0 0 0 -0 -0 0 -0
6 8 11 11 9 9 9 7 7 6 7 8 11 11 8 8 6 5 5 4 5 4 4 3 3 3 2 2 2 2 1 1 1 1 1 1 1 1 0 1 0 1 1 1
6 9 12 12 11 16 8 5 5 6 7 7 9 8 8 7 5 4 4 4 4 4 3 3 3 2 2 1 1 1 1 1 2 2 2 1 1 1 1 1 1 1 0 1
5 6 9 10 10 8 7 6 7 8 9 7 8 7 7 6 5 5 3 3 3 3 3 2 2 2 1 2 1 1 1 1 1 2 2 1 1 1 1 1 0 0 1 1
5 5 7 8 11 12 8 6 4 5 10 7 7 8 6 5 8 7 4 3 3 2 2 2 2 2 2 1 1 2 2 2 2 1 1 0 0 0 1 1 0 -0 0 1
7 7 9 8 9 8 6 5 4 9 11 6 7 7 8 6 5 4 3 3 2 2 2 1 1 2 1 1 1 2 2 2 1 0 0 0 -0 0 -0 -0 -1 -0 0 0
8 9 9 8 10 11 4 5 8 6 5 6 6 6 7 4 4 4 3 3 3 2 2 2 2 2 1 1 1 2 2 1 0 -0 0 0 -1 0 0 -0 0 0 1 1
9 6 8 7 9 5 4 4 4 4 4 5 6 6 4 4 4 3 3 3 3 2 2 2 2 2 1 0 1 2 1 0 0 0 0 -0 -0 -0 -1 0 1 1 1 2
5 5 7 7 6 5 4 3 3 3 3 3 3 3 3 4 4 3 3 3 3 2 2 1 2 2 2 1 0 1 1 0 0 1 0 -0 1 -0 -1 1 0 1 2 2
6 5 6 6 5 5 4 4 3 3 3 3 3 3 3 3 4 3 3 3 3 2 2 2 2 1 2 1 -1 0 0 0 0 0 1 1 1 1 1 0 0 1 0 1
5 6 7 7 5 4 4 3 3 3 3 3 3 3 3 2 3 2 3 2 2 2 2 2 1 1 0 0 -0 -1 0 -0 1 1 2 1 0 1 1 0 2 8 7 9